TimeEST,TemperatureF,Dew PointF,Humidity,Sea Level PressureIn,VisibilityMPH,Wind Direction,Wind SpeedMPH,Gust SpeedMPH,PrecipitationIn,Events,Conditions,WindDirDegrees,DateUTC
12:15 AM,38.3,24.6,58,30.35,10.0,WNW,11.5,18.4,N/A,,Clear,290,2013-01-10 05:15:00
12:35 AM,38.5,24.3,57,30.35,10.0,West,11.5,19.6,N/A,,Clear,280,2013-01-10 05:35:00
12:55 AM,38.7,23.9,55,30.36,10.0,West,11.5,27.6,N/A,,Clear,280,2013-01-10 05:55:00
1:15 AM,38.3,24.1,57,30.37,10.0,West,17.3,28.8,N/A,,Clear,270,2013-01-10 06:15:00
1:35 AM,37.8,24.3,58,30.37,10.0,West,17.3,28.8,N/A,,Clear,280,2013-01-10 06:35:00
1:55 AM,37.6,24.4,59,30.39,10.0,WNW,16.1,25.3,N/A,,Clear,290,2013-01-10 06:55:00
3:15 AM,36.1,24.1,62,30.44,10.0,WNW,5.8,-,N/A,,Clear,300,2013-01-10 08:15:00
3:35 AM,35.8,23.9,62,30.44,10.0,West,4.6,-,N/A,,Scattered Clouds,280,2013-01-10 08:35:00
3:55 AM,35.4,23.9,63,30.44,10.0,WNW,6.9,-,N/A,,Clear,290,2013-01-10 08:55:00
4:15 AM,34.0,23.9,67,30.45,10.0,WNW,5.8,-,N/A,,Scattered Clouds,300,2013-01-10 09:15:00
4:35 AM,34.9,23.9,64,30.45,10.0,WNW,4.6,-,N/A,,Scattered Clouds,290,2013-01-10 09:35:00
5:53 AM,33.8,23.0,65,30.48,10.0,West,4.6,-,N/A,,Mostly Cloudy,270,2013-01-10 10:53:00
6:53 AM,33.8,24.8,70,30.51,10.0,West,6.9,-,N/A,,Overcast,270,2013-01-10 11:53:00
7:53 AM,32.0,24.8,75,30.54,10.0,West,5.8,-,N/A,,Scattered Clouds,260,2013-01-10 12:53:00
8:53 AM,33.8,24.8,70,30.55,10.0,West,5.8,-,N/A,,Clear,280,2013-01-10 13:53:00
9:53 AM,33.8,24.8,70,30.57,10.0,Calm,Calm,-,N/A,,Clear,0,2013-01-10 14:53:00
10:53 AM,37.4,24.8,60,30.57,10.0,Variable,3.5,-,N/A,,Clear,0,2013-01-10 15:53:00
11:53 AM,37.4,24.8,60,30.52,10.0,NNW,3.5,-,N/A,,Clear,330,2013-01-10 16:53:00
12:53 PM,39.2,24.8,56,30.50,10.0,Calm,Calm,-,N/A,,Mostly Cloudy,0,2013-01-10 17:53:00
1:53 PM,41.0,24.8,53,30.51,10.0,Calm,Calm,-,N/A,,Mostly Cloudy,0,2013-01-10 18:53:00
2:53 PM,41.0,24.8,53,30.50,10.0,Calm,Calm,-,N/A,,Scattered Clouds,0,2013-01-10 19:53:00
3:53 PM,39.2,24.8,56,30.50,10.0,South,4.6,-,N/A,,Scattered Clouds,180,2013-01-10 20:53:00
4:53 PM,39.2,24.8,56,30.50,10.0,Calm,Calm,-,N/A,,Mostly Cloudy,0,2013-01-10 21:53:00
5:53 PM,37.4,24.8,60,30.50,10.0,Calm,Calm,-,N/A,,Mostly Cloudy,0,2013-01-10 22:53:00
6:53 PM,35.6,24.8,65,30.49,10.0,Calm,Calm,-,N/A,,Mostly Cloudy,0,2013-01-10 23:53:00
7:53 PM,33.8,24.8,70,30.48,10.0,Calm,Calm,-,N/A,,Mostly Cloudy,0,2013-01-11 00:53:00
8:53 PM,33.8,24.8,70,30.48,10.0,Calm,Calm,-,N/A,,Mostly Cloudy,0,2013-01-11 01:53:00
9:55 PM,32.5,25.2,74,30.48,10.0,Calm,Calm,-,N/A,,Clear,0,2013-01-11 02:55:00
10:15 PM,32.9,25.5,74,30.47,10.0,Calm,Calm,-,N/A,,Clear,0,2013-01-11 03:15:00
10:35 PM,34.0,25.2,70,30.45,10.0,Calm,Calm,-,N/A,,Clear,0,2013-01-11 03:35:00
10:55 PM,32.9,25.5,74,30.43,10.0,NNE,4.6,-,N/A,,Clear,30,2013-01-11 03:55:00
11:15 PM,33.4,25.5,73,30.43,10.0,NE,3.5,-,N/A,,Clear,40,2013-01-11 04:15:00
11:35 PM,32.5,25.7,76,30.43,10.0,Calm,Calm,-,N/A,,Clear,0,2013-01-11 04:35:00
11:55 PM,32.0,25.3,76,30.43,10.0,Calm,Calm,-,N/A,,Scattered Clouds,0,2013-01-11 04:55:00